{"data":{"norad_id":53856,"intl_designator":"2022-114AQ","name":"STARLINK-4795","alt_names":[],"object_type":"PAYLOAD","status":"ACTIVE","operator":null,"country":"US","launch_date":"2022-09-19","launch_site_code":"AFETR","launch_vehicle":null,"mission":null,"orbit_class":"UNKNOWN","rcs_meters":null,"size_class":null,"mass_kg":null,"dimensions":null,"purposes":["comms"],"wikipedia_slug":null,"has_3d_model":false,"image_url":null,"decayed_at":null,"tle_current":{"epoch":"2026-09-20T21:48:02.897568Z","epoch_age_seconds":48843,"freshness":"FRESH","line1":"1 53856U 22114AQ  26263.90836687  .00000514  00000+0  32471-4 0  9993","line2":"2 53856  53.1883  77.3320 0001230  82.9273 277.1867 15.26520684223291","mean_motion":15.26520684,"eccentricity":0.000123,"inclination_deg":53.1883,"raan_deg":77.332,"arg_perigee_deg":82.9273,"mean_anomaly_deg":277.1867,"bstar":3.2471e-5,"rev_number":22329,"period_min":94.332164319367,"perigee_km":485.37858712417,"apogee_km":487.06721966041,"semimajor_km":6864.3599033923,"source":"CELESTRAK","updated_at":"2026-09-21T09:00:33.024463Z"}}}